Location: Newark
(39.9500°N, 8.6833°E)
Time: 13:05:05
(UTC+00:00)

NO-84 - Pass Details

Date: 27 February 2020
Orbit: 328 x 491 km, 55.0° (Epoch: 01 April)

Event Time Altitude Azimuth Distance (km) Brightness Sun altitude
Exits shadow 04:12:20 35° 357° (N) 793 ? -21.9°
Maximum altitude 04:13:18 43° 37° (NE) 678 ? -21.7°
Drops below altitude 10° 04:16:45 10° 110° (ESE) 1,597 ? -21.0°
Sets 04:18:54 0° 118° (ESE) 2,439 ? -20.6°
